User: anonymous
Location: The D'Auria's Ocala Star Observatory
(29.0276°N, 82.1742°W)
Time: 08:14:17
(UTC-04:00)
Language:

Abrixas rocket - Orbit

View from above orbital plane
View from above orbital plane
View from above satellite
View from above satellite

Ground track
Ground track

The orbit data is extracted from the following two-line orbital elements,

1 25723U 99022C   14273.45366860  .00014353  00000-0  45788-3 0  7658
2 25723 048.4248 338.8903 0017481 354.2971 080.2003 15.32502277853291
Epoch (UTC): 30 September 2014 10:53:16
Eccentricity: 0.0017481
inclination: 48.4248°
perigee height: 456 km
apogee height: 480 km
right ascension of ascending node: 338.8903°
argument of perigee: 354.2971°
revolutions per day: 15.32502277
mean anomaly at epoch: 80.2003°
orbit number at epoch: 85329

The dashed part of the orbit path shows where the satellite is in the earth's shadow,  

DLR